Location: Astronomy Club of Akron Observatory
(40.9700°N, 81.5606°W)
Time: 19:31:31
(UTC-04:00)

ISS - Pass Details

Date: 19 July 2018
Orbit: 402 x 408 km, 51.6° (Epoch: 22 July)

Event Time Altitude Azimuth Distance (km) Brightness Sun altitude
Rises 01:40:13 0° 294° (WNW) 2,325 0.3 -28.2°
Reaches altitude 10° 01:43:08 10° 322° (NW) 1,467 -0.4 -28.1°
Maximum altitude 01:44:52 13° 354° (N) 1,276 -0.5 -28.1°
Drops below altitude 10° 01:46:36 10° 26° (NNE) 1,470 -0.2 -28.1°
Sets 01:49:31 0° 54° (NE) 2,333 0.6 -28.1°
